Tunica, MS

6:57 PM CDT on April 25, 2017 (GMT -0500)
Tunica

Weather History for KUTA - October, 2012

Change the Weather History Date:

Saturday, October 13, 2012

  Actual Average (KAWM) Record (KAWM)
Temperature  
Mean Temperature 70 °F -  
Max Temperature 82 °F 78 °F 93 °F (1963)
Min Temperature 59 °F 52 °F 32 °F (1987)
Cooling Degree Days 6    
Growing Degree Days 20 (Base 50)    
Moisture  
Dew Point 61 °F    
Average Humidity 76    
Maximum Humidity 100    
Minimum Humidity 45    
Precipitation  
Precipitation 0.00 in - - ()
Sea Level Pressure  
Sea Level Pressure 30.13 in    
Wind  
Wind Speed 6 mph (South)    
Max Wind Speed 20 mph    
Max Gust Speed 28 mph    
Visibility 6 miles    
Events Fog , Rain    
Averages and records for this station are not official NWS values.
T = Trace of Precipitation, MM = Missing Value Source: NWS Daily Summary

Daily Weather History Graph

Daily Weather History Graph

Search for Another Location

Airport or City:

Trip Planner

Search our weather history database for the weather conditions in past years. The results will help you decide how hot, cold, wet, or windy it might be!

Date:

Astronomy

Oct. 13, 2012 Rise Set
Actual Time 7:05 AM CDT 6:28 PM CDT
Civil Twilight 6:40 AM CDT 6:53 PM CDT
Nautical Twilight 6:11 AM CDT 7:23 PM CDT
Astronomical Twilight 5:41 AM CDT 7:52 PM CDT
Moon 4:59 AM CDT (10/13) 5:10 PM CDT (10/13)
Length of Visible Light 12h 13m
Length of Day
11h 22m
Waning Crescent, 5% of the Moon is Illuminated
Oct 13
Waning Crescent
Oct 15
New
Oct 21
First Quarter
Oct 29
Full
Nov 6
Last Quarter

Hourly Weather History & Observations

Time (CDT) Temp. Heat Index Dew Point Humidity Pressure Visibility Wind Dir Wind Speed Gust Speed Precip Events Conditions
12:35 AM 62.6 °F - 60.8 °F 94% 30.20 in 5.0 mi North 3.5 mph - N/A   Scattered Clouds
12:55 AM 60.8 °F - 60.8 °F 100% 30.20 in 5.0 mi North 3.5 mph - N/A   Scattered Clouds
1:15 AM 60.8 °F - 60.8 °F 100% 30.20 in 5.0 mi North 3.5 mph - N/A   Scattered Clouds
1:55 AM 60.8 °F - 60.8 °F 100% 30.19 in 4.0 mi North 3.5 mph - N/A   Overcast
2:15 AM 62.6 °F - 60.8 °F 94% 30.19 in 0.2 mi Calm Calm - N/A Fog Fog
2:35 AM 62.6 °F - 62.6 °F 100% 30.18 in 0.2 mi Calm Calm - N/A Fog Fog
2:55 AM 62.6 °F - 62.6 °F 100% 30.18 in 0.2 mi Calm Calm - N/A Fog Fog
3:35 AM 62.6 °F - 60.8 °F 94% 30.18 in 0.2 mi Calm Calm - N/A Fog Fog
3:55 AM 62.6 °F - 60.8 °F 94% 30.18 in 0.2 mi Calm Calm - N/A Fog Fog
4:15 AM 62.6 °F - 60.8 °F 94% 30.17 in 0.5 mi Calm Calm - N/A Fog Fog
4:35 AM 60.8 °F - 60.8 °F 100% 30.17 in 0.2 mi ENE 3.5 mph - N/A Fog Fog
4:55 AM 60.8 °F - 60.8 °F 100% 30.16 in 0.2 mi Calm Calm - N/A Fog Fog
5:15 AM 60.8 °F - 60.8 °F 100% 30.17 in 0.2 mi Calm Calm - N/A Fog Fog
5:35 AM 60.8 °F - 60.8 °F 100% 30.17 in 0.5 mi Calm Calm - N/A Fog Fog
5:55 AM 60.8 °F - 59.0 °F 94% 30.17 in 0.2 mi Calm Calm - N/A Fog Fog
6:15 AM 60.8 °F - 59.0 °F 94% 30.18 in 0.2 mi Calm Calm - N/A Fog Fog
6:35 AM 60.8 °F - 60.8 °F 100% 30.17 in 0.2 mi SSE 3.5 mph - N/A Fog Fog
6:55 AM 60.8 °F - 59.0 °F 94% 30.18 in 0.2 mi SSE 4.6 mph - N/A Rain Rain
7:15 AM 60.8 °F - 59.0 °F 94% 30.19 in 0.2 mi Calm Calm - N/A Fog Fog
7:35 AM 60.8 °F - 59.0 °F 94% 30.19 in 0.2 mi Calm Calm - N/A Fog Fog
7:55 AM 59.0 °F - 59.0 °F 100% 30.19 in 0.2 mi Calm Calm - N/A Fog Fog
8:15 AM 62.6 °F - 62.6 °F 100% 30.19 in 0.2 mi South 4.6 mph - N/A Fog Fog
8:35 AM 64.4 °F - 64.4 °F 100% 30.20 in 1.8 mi South 5.8 mph - N/A Rain Light Rain
8:55 AM 66.2 °F - 64.4 °F 94% 30.21 in 7.0 mi South 8.1 mph - N/A   Clear
9:35 AM 68.0 °F - 68.0 °F 100% 30.20 in 10.0 mi South 9.2 mph - N/A   Clear
9:55 AM 71.6 °F - 68.0 °F 88% 30.21 in 10.0 mi SSW 11.5 mph - N/A   Clear
10:15 AM 73.4 °F - 66.2 °F 78% 30.21 in 10.0 mi SSW 11.5 mph - N/A   Clear
10:35 AM 75.2 °F - 66.2 °F 73% 30.20 in 10.0 mi South 10.4 mph 13.8 mph N/A   Clear
10:55 AM 77.0 °F - 66.2 °F 69% 30.19 in 10.0 mi SSW 13.8 mph 19.6 mph N/A   Clear
11:15 AM 77.0 °F - 66.2 °F 69% 30.18 in 10.0 mi South 11.5 mph - N/A   Scattered Clouds
11:35 AM 78.8 °F - 64.4 °F 61% 30.17 in 10.0 mi South 13.8 mph - N/A   Mostly Cloudy
11:55 AM 78.8 °F - 62.6 °F 57% 30.16 in 10.0 mi South 18.4 mph 26.5 mph N/A   Scattered Clouds
12:35 PM 80.6 °F 81.5 °F 60.8 °F 51% 30.14 in 10.0 mi South 18.4 mph 27.6 mph N/A   Scattered Clouds
12:55 PM 80.6 °F 81.5 °F 60.8 °F 51% 30.13 in 10.0 mi South 18.4 mph 21.9 mph N/A   Scattered Clouds
1:15 PM 80.6 °F 81.1 °F 59.0 °F 48% 30.12 in 10.0 mi South 19.6 mph 24.2 mph N/A   Scattered Clouds
1:55 PM 82.4 °F 82.5 °F 59.0 °F 45% 30.09 in 10.0 mi SSW 18.4 mph 26.5 mph N/A   Scattered Clouds
2:15 PM 82.4 °F 82.5 °F 59.0 °F 45% 30.08 in 10.0 mi SSW 19.6 mph 24.2 mph N/A   Scattered Clouds
2:35 PM 80.6 °F 81.1 °F 59.0 °F 48% 30.07 in 10.0 mi South 16.1 mph 23.0 mph N/A   Scattered Clouds
3:15 PM 82.4 °F 82.5 °F 59.0 °F 45% 30.06 in 10.0 mi South 13.8 mph 20.7 mph N/A   Scattered Clouds
3:35 PM 80.6 °F 81.5 °F 60.8 °F 51% 30.06 in 10.0 mi South 12.7 mph 21.9 mph N/A   Scattered Clouds
3:55 PM 82.4 °F 82.5 °F 59.0 °F 45% 30.05 in 10.0 mi South 17.3 mph - N/A   Scattered Clouds
4:15 PM 82.4 °F 82.5 °F 59.0 °F 45% 30.05 in 10.0 mi SSE 18.4 mph 24.2 mph N/A   Scattered Clouds
4:35 PM 80.6 °F 81.1 °F 59.0 °F 48% 30.05 in 10.0 mi South 15.0 mph 19.6 mph N/A   Clear
4:55 PM 80.6 °F 81.1 °F 59.0 °F 48% 30.05 in 10.0 mi South 13.8 mph 19.6 mph N/A   Clear
5:15 PM 80.6 °F 81.1 °F 59.0 °F 48% 30.04 in 10.0 mi South 13.8 mph - N/A   Clear
5:35 PM 80.6 °F 81.1 °F 59.0 °F 48% 30.04 in 10.0 mi South 12.7 mph 17.3 mph N/A   Clear
5:55 PM 78.8 °F - 59.0 °F 51% 30.04 in 10.0 mi South 12.7 mph - N/A   Clear
6:15 PM 77.0 °F - 59.0 °F 54% 30.03 in 10.0 mi SSE 10.4 mph - N/A   Scattered Clouds
6:35 PM 75.2 °F - 59.0 °F 57% 30.03 in 10.0 mi SSE 10.4 mph - N/A   Scattered Clouds
7:35 PM 71.6 °F - 60.8 °F 69% 30.03 in 10.0 mi South 9.2 mph - N/A   Scattered Clouds
7:55 PM 71.6 °F - 60.8 °F 69% 30.03 in 10.0 mi SSE 9.2 mph - N/A   Clear
9:15 PM 69.8 °F - 60.8 °F 73% 30.03 in 10.0 mi SSE 8.1 mph - N/A   Clear
9:35 PM 69.8 °F - 60.8 °F 73% 30.03 in 10.0 mi SSE 8.1 mph - N/A   Clear
9:55 PM 69.8 °F - 60.8 °F 73% 30.02 in 10.0 mi SSE 9.2 mph - N/A   Clear
10:15 PM 69.8 °F - 60.8 °F 73% 30.02 in 10.0 mi SSE 12.7 mph - N/A   Clear
11:15 PM 69.8 °F - 60.8 °F 73% 30.00 in 10.0 mi SSE 13.8 mph - N/A   Clear
11:35 PM 69.8 °F - 60.8 °F 73% 30.00 in 10.0 mi SSE 15.0 mph 18.4 mph N/A   Clear